www.pogodaiklimat.ru

Погода и климат >> Архив погоды >> Россия >> Хабаровский край >> Гвасюги


ПОГОДА в Гвасюгах

  • Прогноз погоды в Гвасюгах
  • Монитор погоды в Гвасюгах

АРХИВ ПОГОДЫ в Гвасюгах

Время (UTC), дата Ветер
(напр.,м/с)
 
Видим.   Явления Облачность Т
(С)
Тd
(С)
f
(%)
Тe
(С)
Тes
(С)
Комфортность P
(гПа)
Po
(гПа)
Тmin
(С)
Tmax
(С)
R
(мм)
R24
(мм)
S
(см)
00 16.04 штиль 0 50 км 3/0
[Ci fib]
+8.0 -4.8 40 +8 +19 опасность
простуды
1007.1 985.3
03 16.04 Ю 3 50 км 1/0
[Ci fib]
+18.7 -6.0 18 +19 +31 опасность
простуды
1002.2 981.4
06 16.04 ЮЗ 4
{11}
50 км 3/0
[Ci sp]
+20.9 -7.5 14 +20 +25 999.3 978.7
09 16.04 Ю 2 50 км 3/0
[Ac lent Ci fib]
+19.5 -8.2 15 +20 +20 997.9 977.2 +21.7
12 16.04 С 1 20 км 8/0
[Ci]
+5.0 -2.3 59 +4 +4 1000.5 978.7
15 16.04 С 1 20 км 10/0
[Ci]
+3.3 -2.1 68 +2 +2 1001.2 979.2
18 16.04 С 1 20 км 9/0
[Ac lent Ci fib]
+0.5 -2.6 80 -1 -1 1002.2 980.0
21 16.04 штиль 0 20 км 10/0
[Cs]
+0.5 -2.2 82 -1 0 1004.8 982.6 -0.3
00 17.04 штиль 0 20 км 10/0
[Cs]
+10.2 +0.1 49 +10 +19 1004.8 983.3
03 17.04 Ю 2 20 км 10/0
[Cs]
+19.3 -0.9 26 +20 +32 1002.0 981.2
06 17.04 Ю 4 20 км 3/0
[Ci fib]
+22.2 -2.0 20 +21 +26 комфорт 998.7 978.2
09 17.04 Ю 1 20 км 8/0
[Ac lent Ci sp]
+20.7 -1.9 22 +22 +22 комфорт 997.9 977.3 +22.8
12 17.04 СВ 1 20 км 9/0
[Ac trans Ci sp]
+8.3 +0.3 57 +8 +8 999.1 977.6
15 17.04 С 1 20 км 8/0
[Cs]
+1.6 -1.4 80 -0 -0 999.1 977.0
18 17.04 С 2 20 км 10/0
[Cs]
+0.8 -1.5 85 -3 -3 997.8 975.7
21 17.04 С 1 20 км 9/0
[]
-0.1 -1.8 88 -2 -2 996.5 974.4 -0.9
00 18.04 штиль 0 20 км 10/5 600 м
[Sc Ac trans Cs]
+8.7 -0.4 53 +8 +11 995.5 974.1
03 18.04 ЮВ 3
{12}
20 км в посл. час ливневой дождь 10/10 600 м
[Cb cap]
+11.7 +3.3 56 +10 +10 996.2 975.1
06 18.04 СЗ 4 10 км слаб. ливневой дождь 10/10 600 м
[Cb cap]
+7.4 +3.0 74 +4 +4 997.1 975.6
09 18.04 ЮЗ 2 10 км слаб. дождь 10/10 600 м
[Frnb Ns]
+3.0 +0.9 86 -0 -0 1001.8 979.8 +14.6 3
12 18.04 ЮЗ 1 20 км в посл. час дождь {ливн. осадки} 10/10
[Sc diur, vesp]
+0.7 -2.4 80 -1 -1 1004.5 982.3
15 18.04 Ю 3 10 км слаб. ливневой снег 10/10 600 м
[Cb cap]
-0.3 -4.4 74 -5 -5 1004.8 982.5
18 18.04 Ю 3 1000 м ливневой снег 10/10 600 м
[Cb cap]
-1.7 -2.5 94 -7 -7 1004.9 982.5
21 18.04 ЮЗ 2 20 км в посл. час ливневой снег 10/9 600 м
[Cb cap Ac cuf]
-1.3 -7.2 64 -5 -5 1005.0 982.6 -1.8 4 7
00 19.04 ЮЗ 3
{11}
10 км слаб. ливневой снег 10/8 600 м
[Cb cap Ac trans]
-1.2 -5.9 70 -6 -5 1006.6 984.2
03 19.04 ЮЗ 4 10 км слаб. ливневой снег 10/10 600 м
[Cb cap]
-0.3 -4.9 71 -6 -6 1007.6 985.3
06 19.04 ЮЗ 3 2000 м слаб. ливневой снег 10/10 600 м
[Cb cap]
-0.2 -1.6 90 -5 -5 1008.4 986.0
09 19.04 Ю 1 2000 м слаб. ливневой снег 10/10 600 м
[Cb cap]
0.0 -1.0 93 -2 -2 1009.4 987.1 +0.3 3
12 19.04 Ю 2 10 км слаб. снег 10/6 600 м
[Sc As op]
-0.4 -1.6 92 -4 -4 1010.3 987.9
15 19.04 штиль 0 10 км слаб. снег 10/8 600 м
[Frnb As op]
-0.7 -1.5 94 -2 -2 1010.6 988.1
18 19.04 штиль 0 20 км {снег} 8/8 600 м
[Sc]
-2.9 -3.4 96 -4 -4 1012.1 989.4
21 19.04 штиль 0 50 км 8/8 600 м
[Sc]
-2.0 -2.3 98 -3 -3 1012.6 989.8 -3.3 2 9
00 20.04 Ю 2 50 км 6/6 600 м
[Cu Sc]
+2.6 -2.5 69 -0 +3 1012.6 990.3
03 20.04 З 1 50 км 9/9 600 м
[Cu Sc]
+5.0 -4.7 49 +4 +6 1011.5 989.5
06 20.04 В 3 50 км 3/3 600 м
[Cu hum]
+7.9 -4.9 40 +6 +11 1009.1 987.4
09 20.04 В 3 50 км ясно +6.8 -3.6 47 +4 +5 1007.5 985.7 +8.3
12 20.04 СВ 2 50 км 8/6 600 м
[Sc Ac lent]
+3.1 -3.0 64 +1 +1 1008.0 985.9
15 20.04 С 1 50 км 10/0
[Ac trans Cs]
+1.8 -2.1 75 0 0 1007.8 985.6
18 20.04 С 1 50 км 10/5 600 м
[Sc Ac trans Cs]
+1.0 -1.9 81 -1 -1 1006.3 984.0
21 20.04 СВ 1 50 км 8/5 600 м
[Sc diur, vesp Ac trans Ci sp]
+1.4 -2.0 78 -0 0 1006.5 984.3 -0.5
00 21.04 ЮЗ 4 50 км 1/0
[Ci sp]
+9.8 -6.4 31 +8 +14 1005.8 984.3
03 21.04 З 6-11
{12}
50 км 3/3 600 м
[Cu hum]
+11.8 -11.1 19 +10 +14 1006.2 984.8
06 21.04 З 4
{14}
50 км 3/3 600 м
[Cu hum]
+12.1 -11.8 18 +11 +15 1007.1 985.7
09 21.04 З 3
{12}
50 км 1/1 600 м
[Cu hum]
+9.8 -11.6 21 +8 +9 1008.9 987.3 +12.3
12 21.04 штиль 0 50 км ясно -1.8 -6.6 70 -3 -3 1011.8 989.2
15 21.04 штиль 0 50 км ясно -4.9 -6.9 86 -6 -6 1013.3 990.4
18 21.04 штиль 0 50 км ясно -7.2 -8.1 93 -8 -8 1014.9 991.8
21 21.04 штиль 0 50 км ясно -6.9 -8.0 92 -8 -7 1016.6 993.4 -8.4
00 22.04 Ю 2 20 км ясно +5.8 -7.3 38 +4 +13 опасность
простуды
1015.6 993.6
03 22.04 З 4-10
{10}
20 км 3/3 600 м
[Cu hum]
+11.5 -13.1 16 +10 +17 1014.9 993.2
06 22.04 З 3
{11}
20 км 4/4 600 м
[Cu hum]
+13.1 -13.0 15 +12 +17 1013.3 991.9
09 22.04 З 3 20 км 4/0
[Ci sp]
+12.1 -11.6 18 +11 +12 1013.4 991.9 +13.5
12 22.04 С 1 20 км 3/0
[Ci sp]
-0.8 -5.4 71 -3 -3 1015.4 992.8
15 22.04 С 1 20 км 3/0
[Ci fib]
-2.4 -5.7 78 -4 -4 1015.5 992.8
18 22.04 С 2 20 км 10/10 600 м
[Sc]
-1.6 -5.9 72 -5 -5 1013.8 991.2
21 22.04 С 1 20 км 10/10 600 м
[Sc]
+0.1 -5.7 65 -1 -1 1011.8 989.3 -2.8

 

Местоположение метеостанции Гвасюги (Хабаровский край, Россия): широта 47.67 долгота 136.10 высота над уровнем моря 180 м.

В архиве по умолчанию представлена погода в Гвасюгах за последнюю неделю. Архивные данные за месяц целиком и за предыдущие месяцы, начиная с января 2011 года, Вы можете получить, выбрав интересующий диапазон дат из раскрывающегося списка и нажав кнопку "Ввод!".


*Определитесь, кто Вы:
робот инопланетянин человек

Внимание! Время в таблицах - всемирное. Для получения местного времени необходимо прибавить поправку, которая равна 10 ч.

Смотрите также архив погоды в соседних городах и на ближайших метеорологических станциях:

Погода в Бичевой (Хабаровский край, Россия) (39 км)
Погода в Оборе (Хабаровский край, Россия) (58 км)
Погода в Георгиевке (Хабаровский край, Россия) (74 км)
Погода в Хоре (Хабаровский край, Россия) (89 км)
Погода в Князе-Волконском (Хабаровский край, Россия) (102 км)
Погода в Сукпае (Хабаровский край, Россия) (105 км)
Погода в Хабаровске 21 км (Хабаровский край, Россия) (105 км)
Погода в Вяземском (Хабаровский край, Россия) (106 км)
Погода в Хабаровске Аэр. Большой (Хабаровский край, Россия) (113 км)
Погода в Бычихе (Хабаровский край, Россия) (118 км)

Пояснения к столбцам:

Ветер - указаны скорость ветра в м/с - средняя за 10 мин, порывы в срок и между сроками (в фигурных скобках) и направление, откуда дует ветер: С - северный, СВ - северо-восточный, В - восточный, ЮВ - юго-восточный, Ю - южный, ЮЗ - юго-западный, З - западный, СЗ - северо-западный.
Видимость - горизонтальная дальность видимости в метрах или километрах. При видимости от 1 до 10 км при отсутствии осадков обычно наблюдается дымка, при ухудшении видимости до 1 км и менее - туман. В сухую погоду видимость может ухудшаться дымом, пылью или мглою.
Явления - указаны атмосферные явления, наблюдавшиеся в срок или в последний час перед сроком; фигурными скобками обозначены явления, наблюдавшиеся между сроками (за 1-3 часа до срока); квадратными скобками обозначены град или гололедные отложения с указанием их диаметра в мм.
Облачность - указаны через наклонную черту общая и нижняя облачность в баллах и высота нижней границы облаков в метрах; квадратными скобками обозначены формы облаков: Ci - перистые, Cs - перисто-слоистые, Cc - перисто-кучевые, Ac - высококучевые, As - высокослоистые, Sc - слоисто-кучевые, Ns - слоисто-дождевые, Cu - кучевые, Cb - кучево-дождевые. Подробнее классификацию облаков см. в Атласе облаков (PDF).
T - Температура воздуха - температура, измеренная на высоте 2 м над землей.
Td - Температура точки росы - температура, при понижении до которой содержащийся в воздухе водяной пар достигнет насыщения.
f - Относительная влажность воздуха - влажноcть воздуха, измеренная на высоте 2 м над землей.
Te - Эффективная температура - температура, которую ощущает одетый по сезону человек в тени. Характеристика душности погоды. При расчете учитывается влияние влажности воздуха и скорости ветра на теплоощущения человека.
Tes - Эффективная температура на солнце - температура, которую ощущает человек, с поправкой на солнечный нагрев. Характеристика знойности погоды. Зависит от высоты солнца над горизонтом, облачности и скорости ветра. Ночью, в пасмурную погоду, а также при ветре 12 м/с и более поправка равна нулю.
P - Атмосферное давление - приведенное к уровню моря атмосферное давление.
Po - Атмосферное давление - измеренное на уровне метеостанции атмосферное давление.
Tmin - Минимальная температура - минимум температуры воздуха на высоте 2 м над землей.
Tmax - Максимальная температура - максимум температуры воздуха на высоте 2 м над землей.
R - Количество осадков - Количество выпавших осадков за период времени, мм. При наведении курсора мыши на число - период времени, за который выпало указанное количество осадков.
R24 - Количество осадков - Количество выпавших осадков за 24 часа, мм.
S - Снежный покров - Высота снежного покрова, см. При наведении курсора мыши на число - состояние снежного покрова и степень покрытия местности в баллах.